Location: Newark
(42.9277°N, 71.8621°W)
Time: 07:01:45
(UTC+00:00)

X-37B - Visible Passes

Search period start: 02 August 2021 00:00
Search period end: 12 August 2021 00:00
Orbit: 383 x 392 km, 45.0° (Epoch: 01 July)

Date Brightness Start Highest point End Pass type
(mag) Time Alt. Az. Time Alt. Az. Time Alt. Az.
02 Aug 3.4 07:12:16 12° ESE 07:12:16 12° ESE 07:12:43 10° ESE visible
02 Aug 0.7 08:44:32 14° WSW 08:47:07 67° SSE 08:50:19 10° ENE visible
03 Aug 1.2 07:48:41 40° SSE 07:48:49 41° SSE 07:51:52 10° E visible
04 Aug 3.4 06:52:48 13° E 06:52:48 13° E 06:53:15 10° E visible
04 Aug 0.6 08:25:04 22° WSW 08:27:00 84° NNW 08:30:13 10° ENE visible
05 Aug 1.1 07:29:11 53° ESE 07:29:11 53° ESE 07:31:50 10° ENE visible
05 Aug 1.2 09:02:13 10° W 09:05:22 56° N 09:08:31 10° ENE visible
06 Aug 3.8 06:33:19 10° E 06:33:19 10° E 06:33:22 10° E visible
06 Aug 0.9 08:05:35 30° W 08:06:56 64° N 08:10:07 10° ENE visible
07 Aug 2.1 07:09:45 35° ENE 07:09:45 35° ENE 07:11:44 10° ENE visible
07 Aug 1.2 08:42:11 10° WNW 08:45:20 56° N 08:48:29 10° E visible
08 Aug 1.1 07:46:13 44° NW 07:46:54 56° N 07:50:03 10° ENE visible
09 Aug 3.1 06:50:30 20° ENE 06:50:30 20° ENE 06:51:38 10° ENE visible
09 Aug 0.9 08:22:48 15° WNW 08:25:18 65° N 08:28:27 10° E visible
10 Aug 1.4 07:27:12 52° NE 07:27:12 52° NE 07:30:00 10° E visible
10 Aug 0.6 09:00:24 10° WNW 09:03:34 66° SSW 09:06:44 10° ESE visible
11 Aug 0.5 08:04:05 37° WNW 08:05:13 85° NNE 08:08:24 10° ESE visible
